This is the latest recevied weather packets stored in our database for station/object OM7ABC-15. If no packets are shown the sender has not sent any weather packets the latest 10 day(s).
| Time | Temp. | Humidity | Pressure | Rain* | Wind** | Luminosity | Snow |
|---|---|---|---|---|---|---|---|
| 1777514074 | 21.67° C | 37% | 994 hPa | - | - | - | - |
| 1777513174 | 21.67° C | 38% | 993.9 hPa | - | - | - | - |
| 1777512274 | 21.67° C | 38% | 993.9 hPa | - | - | - | - |
| 1777511374 | 21.67° C | 38% | 993.8 hPa | - | - | - | - |
| 1777510474 | 21.67° C | 38% | 993.8 hPa | - | - | - | - |
| 1777509574 | 21.67° C | 38% | 993.7 hPa | - | - | - | - |
| 1777508674 | 21.67° C | 38% | 993.7 hPa | - | - | - | - |
| 1777507773 | 21.67° C | 38% | 993.8 hPa | - | - | - | - |
| 1777500573 | 22.22° C | 38% | 993.1 hPa | - | - | - | - |
| 1777490672 | 22.22° C | 40% | 990.7 hPa | - | - | - | - |
| 1777486172 | 22.22° C | 36% | 989.4 hPa | - | - | - | - |
| 1777484373 | 22.22° C | 36% | 988.8 hPa | - | - | - | - |
| 1777480771 | 21.67° C | 33% | 987.8 hPa | - | - | - | - |
| 1777476271 | 21.67° C | 35% | 987.3 hPa | - | - | - | - |
| 1777474471 | 21.67° C | 35% | 987.2 hPa | - | - | - | - |
| 1777469070 | 22.22° C | 37% | 986.6 hPa | - | - | - | - |
| 1777468170 | 22.22° C | 37% | 986.6 hPa | - | - | - | - |
| 1777466370 | 22.22° C | 36% | 986.7 hPa | - | - | - | - |
| 1777465470 | 22.22° C | 36% | 986.7 hPa | - | - | - | - |
| 1777464570 | 22.22° C | 36% | 986.9 hPa | - | - | - | - |
| 1777462769 | 22.22° C | 36% | 987.4 hPa | - | - | - | - |
| 1777461869 | 21.67° C | 34% | 987.3 hPa | - | - | - | - |
| 1777460969 | 21.67° C | 34% | 987.5 hPa | - | - | - | - |
| 1777460069 | 21.67° C | 35% | 987.6 hPa | - | - | - | - |
| 1777459177 | 22.22° C | 35% | 987.8 hPa | - | - | - | - |
* Rain since midnight (hover to see other rain measurements)
** Current wind speed in m/s (hover to see current wind gust speed)